Regional Weather Roundup
Issued by NWS

Home | Current Version | Previous Version | Graphics & Text | Print | Product List | Glossary On
Versions: 1 2 3 4 5 6 7 8 9 10 11 12 13 14 15 16 17 18 19 20 21 22 23 24 25 26 27 28 29 30 31 32 33 34 35 36 37 38 39 40 41 42 43 44 45 46 47 48 49
000
ASUS43 KDMX 121307
RWRIA

WEATHER ROUNDUP FOR IOWA
NATIONAL WEATHER SERVICE DES MOINES IA
800 AM CDT SAT JUL 12 2014

NOTE: "FAIR" INDICATES FEW OR NO CLOUDS BELOW 12,000 FEET WITH NO
SIGNIFICANT WEATHER AND/OR OBSTRUCTIONS TO VISIBILITY.

* - THESE STATIONS ARE NOT NWS STATIONS...THUS NOT UNDER NWS
QUALITY CONTROL.  THEY ALSO DO NOT REPORT WEATHER SUCH
AS PRECIPITATION OR FOG.

IAZ001>003-012>014-020>022-031>034-043>046-121400-
   NORTHWEST IOWA

CITY           SKY/WX    TMP DP  RH WIND       PRES   REMARKS
CARROLL *      SUNNY     70  68  94 SE3       30.02S
CHEROKEE *     DRIZZLE   70  70 100 CALM      30.01S
DENISON *      SUNNY     70  70 100 CALM      30.00S
LE MARS *      SUNNY     70  68  94 S7        30.00F
ORANGE CITY *  LGT RAIN  70  66  88 S3        30.00S
SHELDON *      PTSUNNY   68  68 100 CALM      30.00R FOG
SIOUX CITY     CLOUDY    70  68  93 SE7       29.97F
SPENCER        LGT RAIN  70  68  93 CALM      30.00F
STORM LAKE *   MOSUNNY   68  68 100 CALM      30.02S
$$

IAZ055>058-069>071-079>083-090>094-121400-
   SOUTHWEST IOWA

CITY           SKY/WX    TMP DP  RH WIND       PRES   REMARKS
ATLANTIC *     SUNNY     72  68  88 E6        30.01F
AUDUBON *      SUNNY     72  70  94 SE3       30.03F
CLARINDA *     SUNNY     75  73  94 CALM      30.03S
COUNCIL BLFS * SUNNY     72  70  94 E9        29.99F
CRESTON *      SUNNY     72  70  94 SE8       30.04S
HARLAN  *      SUNNY     70  70 100 CALM      30.04F
LAMONI         PTSUNNY   76  72  87 CALM      30.06R
RED OAK *      SUNNY     75  73  94 CALM      30.01F
SHENANDOAH *   SUNNY     75  72  88 CALM      30.02S
$$

IAZ047>049-059>061-072>074-084-121400-
   CENTRAL IOWA

CITY           SKY/WX    TMP DP  RH WIND       PRES   REMARKS
AMES           PTSUNNY   71  70  96 CALM      30.01F
ANKENY *       SUNNY     72  70  94 CALM      30.02F
CHARITON *     SUNNY     73  72  94 SE6       30.05S
DES MOINES     CLOUDY    73  69  87 CALM      30.03R
GRINNELL*      CLOUDY    72  70  94 CALM      30.05R
KNOXVILLE *    SUNNY     73  70  88 CALM      30.03S
MARSHALLTOWN   CLOUDY    72  70  93 SW5       30.01S FOG
PELLA *        CLOUDY    73  72  94 CALM      30.05S
PERRY *          N/A     70  70 100 S5        30.02F
$$

IAZ004>006-015-016-023>025-035-036-121400-
   NORTH CENTRAL IOWA

CITY           SKY/WX    TMP DP  RH WIND       PRES   REMARKS
ALGONA *       MOSUNNY   70  70 100 SW9       29.99R
CLARION *      MOSUNNY   70  70 100 CALM      30.01R
ESTHERVILLE    LGT RAIN  70  69  97 W6        30.00F
FORT DODGE *   PTSUNNY   70  68  94 CALM      30.01F
MASON CITY     CLOUDY    71  69  93 NW6       30.00F
FOREST CITY *  PTSUNNY   70  70 100 CALM      29.97F
IOWA FALLS *     N/A     70  68  94 W3        30.02S
$$

IAZ007>011-017>019-026>030-037>042-050>054-066-121400-
   NORTHEAST IOWA

CITY           SKY/WX    TMP DP  RH WIND       PRES   REMARKS
CEDAR RAPIDS   CLOUDY    69  69 100 W5        30.01F
CHARLES CITY * SUNNY     70  70 100 CALM      30.00F FOG
CLINTON *      CLOUDY    70  66  88 CALM      30.06F
DECORAH *        N/A    N/A N/A N/A MISG        N/A
DUBUQUE        RAIN      68  68 100 CALM      30.05F
MONTICELLO *   LGT RAIN  70  70 100 CALM      29.99F
OELWEIN *      SUNNY     70  70 100 N7        30.01F FOG
WATERLOO       CLOUDY    72  70  93 CALM      29.99R FOG
$$

IAZ064-065-067-068-078-121400-
   EAST CENTRAL IOWA

CITY           SKY/WX    TMP DP  RH WIND       PRES   REMARKS
DAVENPORT      LGT RAIN  71  68  90 NE12      29.99F
IOWA CITY      CLOUDY    70  70 100 SW5       30.03S
MT. PLEASANT * CLOUDY    77  73  88 NE3       30.04S
MUSCATINE *    SUNNY     72  70  94 S3        30.01F
QUAD CITIES    LGT RAIN  71  68  90 W5        30.00F
$$

IAZ062-063-075>077-085>089-095>099-121400-
   SOUTHEAST IOWA

CITY           SKY/WX    TMP DP  RH WIND       PRES   REMARKS
BURLINGTON     CLOUDY    78  73  84 W5        30.05R HX  81
FAIRFIELD *    PTSUNNY   75  72  88 SW3       30.03F
FORT MADISON * SUNNY     79  75  89 SW5       30.06S HX  82
KEOKUK *       SUNNY     79  73  83 SW8       30.05S HX  82
OSKALOOSA *      N/A     73  72  94 CALM      30.04S
CENTERVILLE *  SUNNY     75  75 100 S3        30.08S
OTTUMWA        CLOUDY    75  72  90 SW3       30.03F
WASHINGTON *   SUNNY     72  70  94 S3        30.02F
$$

ABBREVIATIONS USED IN REMARKS
   TC - TEMPERATURES IN CELSIUS
  WCI - WIND CHILL INDEX
   HX - HEAT INDEX
  VSB - VISIBILITY
$$




USA.gov is the U.S. government's official web portal to all federal, state and local government web resources and services.